Погода в Махвите

Йемен     15°28′19″N   43°32′30″E
темп.,
°C
ветер,
м/с
пор.,
м/с
влажн.,
%
обл.,
%
осадки,
мм/ч
давл.,
гПа
погр.,
м
6 декабря, пн
пн600:00+20ссв00750 0.0 1017138
03:00+19ссв11780 0.0 101621
06:00+18ссв11790 0.0 101711
09:00+21зсз10620 0.0 1018416
12:00+24зсз42500 0.0 10161042
15:00+24зсз42470 0.0 10141100
18:00+23зсз22530 0.0 1015637
21:00+21сз21750 0.0 1018325
7 декабря, вт
вт700:00+19сз11800 0.0 1018162
03:00+19ссв11800 0.0 101741
06:00+19в11600 0.0 101811
09:00+22зсз11430 0.0 1019470
12:00+25зсз42442 0.0 10161221
15:00+25зсз42477 0.0 10141259
18:00+23зсз32553 0.0 1015702
21:00+21зсз21750 0.0 1017307
8 декабря, ср
ср800:00+20зсз10800 0.0 1017168
03:00+19всв11770 0.0 101723
06:00+19св11610 0.0 101811
09:00+23ссз11380 0.0 1018428
12:00+25сз42400 0.0 10161134
15:00+25зсз43420 0.0 10141339
18:00+23зсз32560 0.0 1016657
21:00+21сз21740 0.0 1018348
9 декабря, чт
чт900:00+20св01750 0.0 1017116
03:00+19с11700 0.0 101611
06:00+18с11830 0.0 101817
09:00+21сз11630 0.0 1018453
12:00+24зсз53500 0.0 10161201
15:00+24зсз434712 0.0 10141346
18:00+21зсз43642 0.0 1016653
21:00+19сз218025 0.1 1018394
10 декабря, пт
пт1000:00+19в01755 0.0 1018251
03:00+19ссв11630 0.0 101718
06:00+17с11801 0.0 101828
09:00+21зсз11410 0.0 1019532
12:00+23сз43420 0.0 10171210
15:00+24зсз42373 0.0 10141287
18:00+22зсз32470 0.0 1015531
21:00+20сз11750 0.0 1017286